Location: Oriwa
(40.7500°S, 175.3333°E)
Time: 14:13:46
(UTC+00:00)

Cosmos 2369 Rocket - Pass Details

Date: 03 February 2023
Orbit: 829 x 852 km, 71.0° (Epoch: 30 March)

Event Time Altitude Azimuth Distance (km) Brightness Sun altitude
Exits shadow 12:22:48 21° 109° (ESE) 1,853 4.1 -32.7°
Drops below altitude 10° 12:25:23 10° 132° (SE) 2,504 5.1 -32.7°
Sets 12:28:15 0° 144° (SE) 3,450 6.1 -32.7°
